World > North America > United States > Texas > Port Aransas

Hourly Port Aransas, TX Regional Weather

Feedback E-mail the Weather

Quick WX

Port Aransas, TX Weather Maps

°F °C°F °C
Port Aransas Weather Map
UTC Time: 8/11/2022, 15:08
Your Time:

Port Aransas, TX Regional Weather

Expires:202208111600;;915544
ASUS44 KSJT 111502
RWRSJT
WEST CENTRAL TEXAS REGIONAL WEATHER ROUNDUP
NATIONAL WEATHER SERVICE SAN ANGELO TX
1000 AM CDT THU AUG 11 2022

NOTE: "FAIR" INDICATES FEW OR NO CLOUDS BELOW 12,000 FEET WITH NO
SIGNIFICANT WEATHER AND/OR OBSTRUCTIONS TO VISIBILITY.


TXZ229-232-234-239-242-243-245-247-249-250-
253-255-257-343-347-443-111600-
TEXAS COASTAL BEND, RIO GRANDE PLAINS DEEP SOUTH TEXAS
  
CITY           SKY/WX    TMP DP  RH WIND       PRES   REMARKS
VICTORIA       SUNNY     82  76  81 VRB5      30.04R                  
BEEVILLE       PTSUNNY   85  71  62 SW5       30.02S                  
ROCKPORT       MOSUNNY   83  76  79 NE6       30.02R                  
PORT ARANSAS   NOT AVBL                                               
PORT LAVACA    SUNNY     85  77  75 E3        30.04R                  
CORPUS CHRISTI PTSUNNY   85  76  74 CALM      30.02R                  
KINGSVILLE NAS NOT AVBL                                               
COTULLA        SUNNY     87  72  60 S5        30.03R                  
LAREDO         SUNNY     87  74  64 S7        30.01S                  
BROWNSVILLE    MOSUNNY   87  75  67 CALM      29.99S                  
PORT ISABEL    MOSUNNY   87  77  72 W5        29.99S                  
HEBBRONVILLE   NOT AVBL                                               
MCALLEN        SUNNY     88  72  58 SE9       30.00S                  
WESLACO        NOT AVBL                                         

SKY/WX - Weather  TMP - Temperature  DP - Dew Point  RH - Humidity
WIND - Wind Direction/Speed PRES - Barometric Pressure VSB - Visibility
WCI - Wind Chill Index E13G22 Wind - East Wind 13 mph/Gusts of 22 mph

Trending Headlines

Port Aransas Radar Loop



Port Aransas Quick Facts


National Two Day Weather Forecast


E-mail the Port Aransas Weather Forecast

Voice your opinion or tell us about page issues...